Find Starlink 32265

NORAD ID: 60415 Int'l Des: 2024-141 Owner: SPXS Country: US Constellation: starlink operational
LEOCIRCULAR

現在のビュー

3D地球を読み込み中...

About Starlink 32265

Starlink 32265 (NORAD 60415) is a starlink constellation satellite (v2 mini) launched Aug 10, 2024 by SPXS of US. It operates in LEO, CIRCULAR orbit with a mass of 730.00 kg.

Starlink 32265について

説明を読み込み中...

次回通過

Passes for default location (London). Set your location on the main map for personalized predictions.

高度履歴

Loading altitude history...

軌道要素

1 60415U 24141T 26170.07204661 .00001566 00000-0 57509-4 0 9998
2 60415 53.1585 130.1964 0001358 94.4124 265.7034 15.34379103105122
Epoch: Jun 19, 2026 • Age: 8 hours

現在のステータス

高度 466.4 km
速度 7.64 km/s
衛星直下点 43.79°N, 119.51°E
打ち上げ日 Aug 10, 2024
運用期間 1.8 years
タイプ internet

技術仕様

分類 Payload
質量 730.00 kg
乾燥質量 700.00 kg
総質量 730.00 kg
長さ 0.30 m
直径 4.10 m
スパン 29.00 m
形状 Box + pan
製造者 SPXS
バスタイプ Starlink V2M
フェーズステータス In Orbit
所有者/国 SPXS/US

Most Searched